Location: Unspecified
(0.0000°N, 0.0000°E)
Time: 07:09:43
(UTC+01:00)

CZ-4B R/B - Visible Passes

Search period start: 20 November 2017 00:00
Search period end: 30 November 2017 00:00
Orbit: 488 x 655 km, 97.8° (Epoch: 19 November)

Date Brightness Start Highest point End Pass type
(mag) Time Alt. Az. Time Alt. Az. Time Alt. Az.
20 Nov 5.9 04:20:04 12° S 04:20:04 12° S 04:20:25 10° S visible
21 Nov 5.8 04:22:24 12° S 04:22:24 12° S 04:22:49 10° S visible
22 Nov 5.8 04:24:44 13° S 04:24:44 13° S 04:25:13 10° S visible
23 Nov 5.7 04:27:05 13° S 04:27:05 13° S 04:27:35 10° S visible
24 Nov 5.7 04:29:25 13° S 04:29:25 13° S 04:29:59 10° S visible
25 Nov 5.7 04:31:47 13° S 04:31:47 13° S 04:32:21 10° S visible
26 Nov 5.6 04:34:08 13° S 04:34:08 13° S 04:34:42 10° S visible
27 Nov 5.6 04:36:30 13° S 04:36:30 13° S 04:37:04 10° S visible
28 Nov 5.6 04:38:53 13° S 04:38:53 13° S 04:39:24 10° S visible
29 Nov 5.6 04:41:15 13° SSW 04:41:15 13° SSW 04:41:45 10° SSW visible
